Track STARLINK-3189 now! 10-day predictions STARLINK-3189 is classified as:
1 51464U 22010J 22185.74780304 .00000535 00000-0 51732-4 0 9991 2 51464 53.2167 192.3068 0002237 43.7774 316.3395 15.08841776 24431